This is the latest recevied weather packets stored in our database for station/object WB9TLH-11. If no packets are shown the sender has not sent any weather packets the latest 10 day(s).
| Time | Temp. | Humidity | Pressure | Rain* | Wind** | Luminosity | Snow |
|---|---|---|---|---|---|---|---|
| 1777911354 | 20° C | 56% | 1008.8 hPa | 0 mm | - | - | - |
| 1777911054 | 19.44° C | 56% | 1008.5 hPa | 0 mm | - | - | - |
| 1777910754 | 19.44° C | 57% | 1008.5 hPa | 0 mm | - | - | - |
| 1777910454 | 19.44° C | 57% | 1008.4 hPa | 0 mm | - | - | - |
| 1777910154 | 19.44° C | 58% | 1008.6 hPa | 0 mm | - | - | - |
| 1777909854 | 18.89° C | 58% | 1008.5 hPa | 0 mm | - | - | - |
| 1777909554 | 18.89° C | 59% | 1008.4 hPa | 0 mm | - | - | - |
| 1777909254 | 18.89° C | 58% | 1008.5 hPa | 0 mm | - | - | - |
| 1777908954 | 18.89° C | 58% | 1008.4 hPa | 0 mm | - | - | - |
| 1777908654 | 18.33° C | 59% | 1008.4 hPa | 0 mm | - | - | - |
| 1777908354 | 18.33° C | 59% | 1008.5 hPa | 0 mm | - | - | - |
| 1777908054 | 18.33° C | 61% | 1008.5 hPa | 0 mm | - | - | - |
| 1777907754 | 17.78° C | 61% | 1008.5 hPa | 0 mm | - | - | - |
| 1777907454 | 17.22° C | 61% | 1008.5 hPa | 0 mm | - | - | - |
| 1777907154 | 16.67° C | 62% | 1008.6 hPa | 0 mm | - | - | - |
| 1777906854 | 16.67° C | 62% | 1008.6 hPa | 0 mm | - | - | - |
| 1777906554 | 16.67° C | 63% | 1008.7 hPa | 0 mm | - | - | - |
| 1777906254 | 17.22° C | 63% | 1008.7 hPa | 0 mm | - | - | - |
| 1777905954 | 17.22° C | 63% | 1008.7 hPa | 0 mm | - | - | - |
| 1777905654 | 17.22° C | 63% | 1009 hPa | 0 mm | - | - | - |
| 1777905354 | 16.67° C | 63% | 1008.9 hPa | 0 mm | - | - | - |
| 1777905054 | 16.67° C | 64% | 1008.3 hPa | 0 mm | - | - | - |
| 1777904754 | 16.67° C | 64% | 1008.7 hPa | 0 mm | - | - | - |
| 1777904454 | 16.67° C | 63% | 1009.1 hPa | 0 mm | - | - | - |
| 1777904154 | 16.67° C | 63% | 1008.8 hPa | 0 mm | - | - | - |
* Rain latest hour (hover to see other rain measurements)
** Current wind speed in m/s (hover to see current wind gust speed)